K9WAE Weather Reports


time (UTC)temp
C
wind
direction
speed
KPH
gust
KPH
rain 1hr
cm
rain 24hr
cm
rain mn
cm
humidity
%
barometer
mb
20260503213603 17 219 0.0 14.5 0.00 0.00 0.00 38 1015.5
20260503212703 17 238 0.0 8.0 0.00 0.00 0.00 38 1015.7
20260503211803 17 0 0.0 0.0 0.00 0.00 0.00 39 1015.7
20260503210904 17 0 0.0 0.0 0.00 0.00 0.00 37 1015.6
20260503210215 17 0 0.0 0.0 0.00 0.00 0.00 37 1015.6
20260503205403 17 0 0.0 0.0 0.00 0.00 0.00 36 1015.8
20260503204503 16 0 0.0 0.0 0.00 0.00 0.00 40 1016.1
20260503203603 16 205 0.0 16.1 0.00 0.00 0.00 37 1016.3
20260503202703 16 193 0.0 16.1 0.00 0.00 0.00 40 1016.3
20260503201803 16 231 1.6 17.7 0.00 0.00 0.00 39 1016.4
20260503200903 16 231 0.0 19.3 0.00 0.00 0.00 38 1016.7
20260503200003 16 240 0.0 6.4 0.00 0.00 0.00 42 1016.5
20260503195403 16 240 0.0 6.4 0.00 0.00 0.00 38 1016.9
20260503194504 16 0 0.0 0.0 0.00 0.00 0.00 38 1017.4
20260503193817 16 0 0.0 0.0 0.00 0.00 0.00 37 1017.5
20260503192703 16 0 0.0 0.0 0.00 0.00 0.00 39 1017.8
20260503191803 16 0 0.0 0.0 0.00 0.00 0.00 38 1017.9
20260503191114 16 0 0.0 0.0 0.00 0.00 0.00 37 1017.8
20260503190003 16 0 0.0 0.0 0.00 0.00 0.00 40 1018.2
20260503185403 15 0 0.0 0.0 0.00 0.00 0.00 43 1018.4
20260503184715 15 250 0.0 17.7 0.00 0.00 0.00 40 1018.4
20260503183603 15 0 0.0 0.0 0.00 0.00 0.00 39 1018.7
20260503182703 15 0 0.0 0.0 0.00 0.00 0.00 45 1018.6
20260503181803 15 179 1.6 20.9 0.00 0.00 0.00 44 1018.6
20260503180903 15 176 0.0 20.9 0.00 0.00 0.00 45 1018.7
20260503180004 15 0 0.0 0.0 0.00 0.00 0.00 39 1018.9
20260503175403 15 0 0.0 0.0 0.00 0.00 0.00 42 1019.0
20260503174503 15 0 0.0 0.0 0.00 0.00 0.00 44 1019.1
20260503173603 15 0 0.0 0.0 0.00 0.00 0.00 41 1019.5
20260503172703 15 0 0.0 0.0 0.00 0.00 0.00 41 1019.4
20260503171804 15 0 0.0 0.0 0.00 0.00 0.00 40 1019.7
20260503171116 15 0 0.0 0.0 0.00 0.00 0.00 39 1019.8
20260503170213 14 0 0.0 0.0 0.00 0.00 0.00 40 1019.9
20260503150214 13 0 0.0 0.0 0.00 0.00 0.00 46 1021.2
20260503131113 9 232 0.0 11.3 0.00 0.00 0.00 63 1021.2
20260503100217 2 0 0.0 0.0 0.00 0.00 0.00 79 1020.0
20260503081116 0 0 0.0 0.0 0.00 0.00 0.00 91 1019.8
20260503072703 0 0 0.0 0.0 0.00 0.00 0.00 90 1019.5
20260503071803 0 0 0.0 0.0 0.00 0.00 0.00 90 1019.5
20260503070904 0 0 0.0 0.0 0.00 0.00 0.00 90 1019.5
20260503054503 0 0 0.0 0.0 0.00 0.00 0.00 88 1020.0
20260503053603 0 0 0.0 0.0 0.00 0.00 0.00 88 1019.9
20260503052703 0 0 0.0 0.0 0.00 0.00 0.00 87 1020.0
20260503051803 0 0 0.0 0.0 0.00 0.00 0.00 86 1020.0
20260503050903 1 0 0.0 0.0 0.00 0.00 0.00 87 1020.1
20260503050003 1 0 0.0 0.0 0.00 0.00 0.00 86 1020.0
20260503045403 1 0 0.0 0.0 0.00 0.00 0.00 86 1020.1
20260503044503 1 0 0.0 0.0 0.00 0.00 0.00 86 1020.0
20260503043603 1 0 0.0 0.0 0.00 0.00 0.00 85 1020.0
20260503042914 1 0 0.0 0.0 0.00 0.00 0.00 85 1020.0
20260503042016 1 0 0.0 0.0 0.00 0.00 0.00 83 1019.9
20260503041114 1 0 0.0 0.0 0.00 0.00 0.00 82 1020.0
20260503040004 2 0 0.0 0.0 0.00 0.00 0.00 80 1019.9
20260503035613 2 0 0.0 0.0 0.00 0.00 0.00 80 1019.9
20260503034715 2 0 0.0 0.0 0.00 0.00 0.00 81 1019.9
20260503033603 2 0 0.0 0.0 0.00 0.00 0.00 79 1019.9
20260503032703 2 0 0.0 0.0 0.00 0.00 0.00 77 1019.9
20260503032017 3 0 0.0 0.0 0.00 0.00 0.00 77 1020.0
20260503030903 3 0 0.0 0.0 0.00 0.00 0.00 76 1019.8
20260503030004 3 0 0.0 0.0 0.00 0.00 0.00 73 1019.9
20260503025403 4 0 0.0 0.0 0.00 0.00 0.00 73 1019.8
20260503024503 5 0 0.0 0.0 0.00 0.00 0.00 71 1019.7
20260503023603 5 0 0.0 0.0 0.00 0.00 0.00 67 1019.7
20260503022703 5 0 0.0 0.0 0.00 0.00 0.00 66 1019.6
20260503021803 6 0 0.0 0.0 0.00 0.00 0.00 66 1019.5
20260503021115 6 0 0.0 0.0 0.00 0.00 0.00 64 1019.4
20260503020003 6 0 0.0 0.0 0.00 0.00 0.00 63 1019.2
20260503015403 7 0 0.0 0.0 0.00 0.00 0.00 63 1019.2
20260503014503 7 0 0.0 0.0 0.00 0.00 0.00 62 1019.1
20260503013814 7 0 0.0 0.0 0.00 0.00 0.00 62 1018.9
20260503012703 7 0 0.0 0.0 0.00 0.00 0.00 62 1018.7
20260503011803 7 0 0.0 0.0 0.00 0.00 0.00 61 1018.6
20260503010903 8 0 0.0 0.0 0.00 0.00 0.00 61 1018.4
20260503010004 8 0 0.0 0.0 0.00 0.00 0.00 59 1018.5
20260503005614 8 0 0.0 0.0 0.00 0.00 0.00 57 1018.5
20260503004717 8 0 0.0 0.0 0.00 0.00 0.00 54 1018.2
20260503003603 9 0 0.0 0.0 0.00 0.00 0.00 51 1018.1
20260503002916 10 0 0.0 0.0 0.00 0.00 0.00 50 1018.1
20260503002014 10 0 0.0 0.0 0.00 0.00 0.00 48 1017.9
20260503000903 10 0 0.0 0.0 0.00 0.00 0.00 46 1017.7
20260503000003 11 322 0.0 4.8 0.00 0.00 0.00 45 1017.6
20260502235615 11 322 0.0 4.8 0.00 0.00 0.00 45 1017.6
20260502234503 11 325 1.6 11.3 0.00 0.00 0.00 44 1017.5
20260502233603 11 0 0.0 0.0 0.00 0.00 0.00 44 1017.3
20260502232704 11 0 0.0 0.0 0.00 0.00 0.00 45 1017.4
20260502231803 11 0 0.0 0.0 0.00 0.00 0.00 47 1017.4
20260502231117 11 0 0.0 0.0 0.00 0.00 0.00 49 1017.4
20260502230003 11 0 0.0 0.0 0.00 0.00 0.00 47 1017.4
20260502225403 12 0 0.0 0.0 0.00 0.00 0.00 45 1017.4
20260502224503 12 0 0.0 0.0 0.00 0.00 0.00 52 1017.3
20260502223604 11 0 0.0 0.0 0.00 0.00 0.00 51 1017.3
20260502222913 11 0 0.0 0.0 0.00 0.00 0.00 51 1017.4
20260502221803 11 0 0.0 0.0 0.00 0.00 0.00 51 1017.2
20260502220903 11 0 0.0 0.0 0.00 0.00 0.00 51 1017.3
20260502220003 11 0 0.0 0.0 0.00 0.00 0.00 53 1017.3
20260502215616 11 0 0.0 0.0 0.00 0.00 0.00 51 1017.3
20260502214503 11 0 0.0 0.0 0.00 0.00 0.00 50 1017.2